Flag for Italy Weather past 2 weeks in Venice, Italy

Now
75 °F

Sunny.


Feels Like: 77 °F
Forecast: 64 / 78 °F
Wind: 3 mph from North

Location: Venice / Tessera

Current Time: Sep 3, 2015 at 11:10:55 AM

Latest Report: Sep 3, 2015 at 10:20 AM


Visibility: 10 mi

Pressure: 29.86 "Hg

Humidity: 61%

Dew point: 61 °F

Location of VeniceLocation

Historic Weather in Venice — Graph

°F

Venice temperature yesterday

Maximum temperature yesterday: 82 °F (at 2:20 PM)
Minimum temperature yesterday: 68 °F (at 7:20 AM)
Average temperature yesterday: 75 °F

Past Weeks' High & Low Weather Summary

 TemperatureHumidityPressure
High88 °F (Aug 30, 2:50 PM)100% (Aug 20, 3:50 AM)30.18 "Hg (Aug 20, 3:50 AM)
Low61 °F (Aug 22, 5:20 AM)39% (Aug 22, 1:20 PM)29.83 "Hg (Sep 1, 4:50 PM)
Average74 °F76%30.01 "Hg
* Reported Aug 19 9:20 AM — Sep 3 9:50 AM, Venice, Weather by CustomWeather, © 2015

Note: Actual official high and low records may vary slightly from our data, if they occured in-between our weather recording intervals... More about our weather records

Advertising

Venice weather history for previous 24 hours

 ConditionsComfort  
Time TempWeatherWind HumidityBarometerVisibility
9:50 AM
Thu, Sep 3
73 °FSunny.2 mph69%29.86 "Hg10 mi
9:20 AM72 °FSunny.7 mph73%29.83 "Hg10 mi
8:50 AM70 °FSunny.9 mph78%29.83 "Hg10 mi
8:20 AM70 °FSunny.10 mph78%29.83 "Hg10 mi
7:50 AM68 °FSunny.9 mph83%29.83 "Hg10 mi
7:20 AM68 °FPassing clouds.10 mph83%29.83 "HgN/A
6:50 AM68 °FClear.12 mph78%29.83 "Hg10 mi
6:20 AM68 °FClear.14 mph78%29.83 "Hg10 mi
5:50 AM68 °FClear.14 mph78%29.83 "Hg10 mi
5:20 AM70 °FClear.14 mph73%29.83 "Hg10 mi
4:50 AM70 °FPassing clouds.10 mph73%29.83 "HgN/A
4:20 AM70 °FClear.8 mph73%29.83 "Hg10 mi
3:50 AM70 °FClear.10 mph73%29.83 "Hg10 mi
3:20 AM70 °FPassing clouds.9 mph73%29.83 "HgN/A
2:50 AM70 °FPassing clouds.8 mph78%29.86 "HgN/A
2:20 AM72 °FPassing clouds.10 mph69%29.86 "HgN/A
1:50 AM72 °FPassing clouds.10 mph69%29.86 "HgN/A
1:20 AM70 °FPassing clouds.8 mph78%29.86 "HgN/A
12:50 AM70 °FPassing clouds.9 mph78%29.86 "HgN/A
12:20 AM70 °FPassing clouds.9 mph83%29.86 "HgN/A
11:50 PM
Wed, Sep 2
72 °FPassing clouds.10 mph78%29.86 "HgN/A
11:20 PM72 °FPassing clouds.10 mph73%29.86 "HgN/A
10:50 PM72 °FPassing clouds.9 mph73%29.86 "HgN/A
10:20 PM72 °FPassing clouds.8 mph73%29.86 "HgN/A
9:50 PM72 °FPassing clouds.9 mph69%29.86 "HgN/A
9:20 PM73 °FClear.8 mph65%29.86 "Hg10 mi
8:50 PM73 °FClear.12 mph65%29.86 "Hg10 mi
8:20 PM75 °FSunny.15 mph61%29.86 "Hg10 mi
7:50 PM77 °FSunny.13 mph65%29.86 "Hg10 mi
7:20 PM81 °FPassing clouds.6 mph58%29.83 "HgN/A
6:50 PM81 °FPassing clouds.6 mph58%29.83 "HgN/A
6:20 PM81 °FSunny.6 mph58%29.83 "Hg10 mi
5:50 PM81 °FPassing clouds.6 mph58%29.83 "HgN/A
5:20 PM81 °FSunny.7 mph62%29.83 "Hg10 mi
4:50 PM81 °FPassing clouds.6 mph62%29.83 "HgN/A
4:20 PM81 °FClear.7 mph58%29.83 "Hg6 mi
3:50 PM81 °FPassing clouds.9 mph62%29.83 "Hg6 mi
3:20 PM81 °FPassing clouds.12 mph62%29.83 "Hg6 mi
2:50 PM81 °FPassing clouds.10 mph62%29.83 "Hg6 mi
2:20 PM82 °FPassing clouds.10 mph55%29.83 "Hg6 mi
1:50 PM79 °FPassing clouds.8 mph61%29.83 "Hg5 mi
1:20 PM79 °FPassing clouds.8 mph65%29.83 "Hg5 mi
12:50 PM79 °FClear.7 mph70%29.86 "Hg4 mi
12:20 PM79 °FClear.7 mph74%29.86 "Hg5 mi
11:50 AM79 °FClear.3 mph70%29.86 "Hg6 mi
11:20 AM77 °FPassing clouds.2 mph74%29.86 "Hg6 mi
Weather by CustomWeather, © 2015

See weather overviewHow to use our weather pages